Location: Bakhuizen
(52.8696°N, 5.4575°E)
Time: 05:34:02
(UTC+00:00)

Nimbus 7 Rocket - Pass Details

Date: 01 October 2021
Orbit: 922 x 965 km, 99.4° (Epoch: 17 October)

Event Time Altitude Azimuth Distance (km) Brightness Sun altitude
Rises 01:33:51 0° 11° (N) 3,586 8.3 -34.0°
Reaches altitude 10° 01:36:51 10° 356° (N) 2,643 7.2 -33.7°
Enters shadow 01:40:07 20° 323° (NW) 2,018 6.2 -33.4°
